AUA551 LOWW-LIRF

Flight info

Callsign AUA551
Flight time 1h 7m
Altitude 30000
Route RUPET DCT GRZ/N0452F360 DCT GIRDA DCT BAXON/N0451F370 DCT UNUMU DCT ETPOK DCT RITEB
Aircraft A320/M-SDE3FGHIRWY/LB1

Departure

Time 2026-05-06 07:34
Airport Vienna International Airport (LOWW)

Arrival

Time 2026-05-06 08:42
Airport Rome–Fiumicino Leonardo da Vinci International Airport (LIRF)
Time Latitude Longitude Altitude Speed Heading
2026-05-06 07:11 48.12017 16.55613 609 ft 0 kts 115°
2026-05-06 07:25 48.12022 16.55597 620 ft 3 kts 119°
2026-05-06 07:25 48.12037 16.55565 615 ft 3 kts 138°
2026-05-06 07:25 48.12058 16.55547 609 ft 4 kts 181°
2026-05-06 07:25 48.12071 16.55551 609 ft 1 kts 206°
2026-05-06 07:26 48.12073 16.55552 609 ft 0 kts 206°
2026-05-06 07:28 48.12071 16.55551 609 ft 1 kts 206°
2026-05-06 07:28 48.12044 16.55531 616 ft 7 kts 206°
2026-05-06 07:28 48.11968 16.55476 613 ft 7 kts 206°
2026-05-06 07:29 48.11908 16.55438 614 ft 12 kts 194°
2026-05-06 07:29 48.11817 16.55437 617 ft 14 kts 152°
2026-05-06 07:29 48.11758 16.55585 622 ft 19 kts 116°
2026-05-06 07:29 48.11693 16.55782 611 ft 21 kts 116°
2026-05-06 07:30 48.11630 16.55981 619 ft 23 kts 116°
2026-05-06 07:30 48.11563 16.56188 613 ft 22 kts 116°
2026-05-06 07:30 48.11496 16.56391 621 ft 22 kts 116°
2026-05-06 07:30 48.11429 16.56600 622 ft 22 kts 115°
2026-05-06 07:31 48.11360 16.56809 617 ft 23 kts 116°
2026-05-06 07:31 48.11290 16.57023 614 ft 23 kts 116°
2026-05-06 07:31 48.11221 16.57238 617 ft 23 kts 115°
2026-05-06 07:31 48.11149 16.57459 614 ft 23 kts 116°
2026-05-06 07:32 48.11100 16.57608 612 ft 10 kts 120°
2026-05-06 07:32 48.11044 16.57645 622 ft 9 kts 188°
2026-05-06 07:32 48.11025 16.57636 617 ft 0 kts 205°
2026-05-06 07:32 48.10995 16.57614 614 ft 13 kts 206°
2026-05-06 07:33 48.10928 16.57532 620 ft 11 kts 251°
2026-05-06 07:33 48.10949 16.57429 609 ft 11 kts 297°
2026-05-06 07:33 48.11021 16.57207 611 ft 54 kts 296°
2026-05-06 07:33 48.11291 16.56387 623 ft 119 kts 296°
2026-05-06 07:34 48.11728 16.55048 616 ft 166 kts 296°
2026-05-06 07:34 48.12257 16.53419 1076 ft 177 kts 292°
2026-05-06 07:34 48.12447 16.51605 1832 ft 181 kts 266°
2026-05-06 07:34 48.12025 16.49810 2455 ft 191 kts 239°
2026-05-06 07:35 48.11054 16.48297 2791 ft 215 kts 218°
2026-05-06 07:35 48.09670 16.47103 3155 ft 244 kts 206°
2026-05-06 07:35 48.08068 16.45985 3732 ft 261 kts 212°
2026-05-06 07:35 48.06554 16.44438 4593 ft 265 kts 220°
2026-05-06 07:36 48.05102 16.42700 5487 ft 269 kts 222°
2026-05-06 07:36 48.03651 16.40900 6355 ft 274 kts 223°
2026-05-06 07:36 48.02164 16.39084 7224 ft 278 kts 222°
2026-05-06 07:36 48.00637 16.37268 8071 ft 283 kts 221°
2026-05-06 07:37 47.99068 16.35443 8906 ft 287 kts 221°
2026-05-06 07:37 47.97480 16.33598 9719 ft 290 kts 224°
2026-05-06 07:37 47.96133 16.31372 10517 ft 289 kts 239°
2026-05-06 07:37 47.95194 16.28713 11163 ft 297 kts 252°
2026-05-06 07:38 47.94458 16.25707 11416 ft 320 kts 253°
2026-05-06 07:38 47.93682 16.22477 11653 ft 341 kts 253°
2026-05-06 07:38 47.92865 16.19088 12197 ft 350 kts 252°
2026-05-06 07:38 47.92029 16.15664 12871 ft 355 kts 252°
2026-05-06 07:39 47.91173 16.12185 13584 ft 359 kts 252°
2026-05-06 07:39 47.90306 16.08682 14301 ft 362 kts 252°
2026-05-06 07:39 47.89434 16.05157 14983 ft 364 kts 252°
2026-05-06 07:39 47.88430 16.01653 15640 ft 370 kts 244°
2026-05-06 07:40 47.86965 15.98481 16263 ft 376 kts 232°
2026-05-06 07:40 47.85047 15.95790 16886 ft 384 kts 219°
2026-05-06 07:40 47.82744 15.93730 17485 ft 390 kts 207°
2026-05-06 07:40 47.80199 15.92241 18056 ft 394 kts 203°
2026-05-06 07:41 47.77625 15.90792 18598 ft 397 kts 203°
2026-05-06 07:41 47.75039 15.89332 19158 ft 399 kts 204°
2026-05-06 07:41 47.72458 15.87872 19711 ft 402 kts 204°
2026-05-06 07:41 47.69809 15.86372 20252 ft 404 kts 204°
2026-05-06 07:42 47.68065 15.85384 20600 ft 405 kts 204°
2026-05-06 07:42 47.64564 15.83402 21274 ft 408 kts 204°
2026-05-06 07:42 47.61907 15.81897 21769 ft 410 kts 204°
2026-05-06 07:42 47.59233 15.80384 22250 ft 413 kts 204°
2026-05-06 07:43 47.56539 15.78863 22719 ft 415 kts 204°
2026-05-06 07:43 47.53834 15.77343 23181 ft 417 kts 204°
2026-05-06 07:43 47.52002 15.76315 23487 ft 418 kts 204°
2026-05-06 07:43 47.49282 15.74792 23916 ft 420 kts 204°
2026-05-06 07:44 47.46539 15.73255 24349 ft 422 kts 204°
2026-05-06 07:44 47.43825 15.71737 24762 ft 424 kts 204°
2026-05-06 07:44 47.41059 15.70190 25151 ft 426 kts 205°
2026-05-06 07:44 47.38243 15.68614 25532 ft 428 kts 205°
2026-05-06 07:45 47.35486 15.67070 25886 ft 430 kts 205°
2026-05-06 07:45 47.32679 15.65501 26236 ft 432 kts 205°
2026-05-06 07:45 47.29863 15.63930 26582 ft 435 kts 205°
2026-05-06 07:45 47.26987 15.62327 26936 ft 437 kts 205°
2026-05-06 07:46 47.24176 15.60761 27256 ft 439 kts 205°
2026-05-06 07:46 47.21310 15.59172 27596 ft 441 kts 206°
2026-05-06 07:46 47.18431 15.57578 27919 ft 443 kts 206°
2026-05-06 07:46 47.15541 15.55976 28205 ft 444 kts 206°
2026-05-06 07:47 47.12638 15.54367 28491 ft 446 kts 206°
2026-05-06 07:47 47.09726 15.52756 28769 ft 448 kts 206°
2026-05-06 07:47 47.06804 15.51143 29058 ft 450 kts 206°
2026-05-06 07:47 47.03869 15.49528 29337 ft 452 kts 206°
2026-05-06 07:48 47.00909 15.47904 29619 ft 453 kts 207°
2026-05-06 07:48 46.97959 15.46288 29954 ft 453 kts 207°
2026-05-06 07:48 46.92461 15.42149 30053 ft 439 kts 219°
2026-05-06 07:49 46.87255 15.37357 30058 ft 439 kts 219°
2026-05-06 07:49 46.82120 15.32656 30064 ft 438 kts 219°
2026-05-06 07:50 46.76948 15.27947 30063 ft 438 kts 219°
2026-05-06 07:50 46.71778 15.23251 30063 ft 438 kts 219°
2026-05-06 07:51 46.66602 15.18566 30063 ft 437 kts 219°
2026-05-06 07:51 46.61447 15.13893 30063 ft 437 kts 219°
2026-05-06 07:52 46.56294 15.09226 30064 ft 436 kts 219°
2026-05-06 07:52 46.51134 15.04582 30063 ft 436 kts 219°
2026-05-06 07:53 46.45972 14.99940 30064 ft 436 kts 220°
2026-05-06 07:53 46.40817 14.95307 30063 ft 436 kts 219°
2026-05-06 07:54 46.35661 14.90696 30063 ft 436 kts 220°
2026-05-06 07:54 46.30494 14.86086 30063 ft 436 kts 220°
2026-05-06 07:55 46.25325 14.81485 30202 ft 437 kts 220°
2026-05-06 07:55 46.22741 14.79186 30594 ft 435 kts 220°
2026-05-06 07:55 46.20162 14.76895 30955 ft 435 kts 220°
2026-05-06 07:56 46.17590 14.74614 31291 ft 434 kts 220°
2026-05-06 07:56 46.15017 14.72330 31633 ft 434 kts 220°
2026-05-06 07:56 46.12441 14.70040 31978 ft 433 kts 220°
2026-05-06 07:56 46.09882 14.67767 32328 ft 433 kts 220°
2026-05-06 07:57 46.07318 14.65498 32650 ft 433 kts 220°
2026-05-06 07:57 46.04736 14.63221 33007 ft 433 kts 220°
2026-05-06 07:57 46.02179 14.60972 33359 ft 432 kts 220°
2026-05-06 07:57 45.99624 14.58724 33699 ft 431 kts 220°
2026-05-06 07:58 45.97065 14.56476 34027 ft 429 kts 221°
2026-05-06 07:58 45.94520 14.54242 34377 ft 428 kts 221°
2026-05-06 07:58 45.91971 14.52004 34678 ft 428 kts 220°
2026-05-06 07:58 45.89431 14.49774 34944 ft 429 kts 220°
2026-05-06 07:59 45.86878 14.47534 35215 ft 430 kts 220°
2026-05-06 07:59 45.84320 14.45292 35451 ft 431 kts 220°
2026-05-06 07:59 45.81755 14.43049 35664 ft 432 kts 219°
2026-05-06 07:59 45.79181 14.40804 35886 ft 433 kts 219°
2026-05-06 08:00 45.76605 14.38561 36012 ft 435 kts 219°
2026-05-06 08:00 45.74015 14.36307 36037 ft 435 kts 219°
2026-05-06 08:00 45.68844 14.31815 36026 ft 435 kts 219°
2026-05-06 08:01 45.63667 14.27319 36027 ft 435 kts 219°
2026-05-06 08:01 45.58490 14.22829 36016 ft 435 kts 219°
2026-05-06 08:02 45.53307 14.18349 36017 ft 436 kts 219°
2026-05-06 08:02 45.48109 14.13890 36017 ft 437 kts 217°
2026-05-06 08:03 45.42587 14.10193 36017 ft 443 kts 212°
2026-05-06 08:03 45.36964 14.06572 36017 ft 443 kts 212°
2026-05-06 08:04 45.31350 14.02955 36016 ft 443 kts 212°
2026-05-06 08:04 45.25715 13.99333 36008 ft 444 kts 212°
2026-05-06 08:05 45.20093 13.95729 36005 ft 444 kts 212°
2026-05-06 08:05 45.14457 13.92136 36008 ft 444 kts 212°
2026-05-06 08:06 45.08817 13.88540 36010 ft 444 kts 212°
2026-05-06 08:06 45.03178 13.84952 36006 ft 444 kts 211°
2026-05-06 08:07 44.97531 13.81374 36011 ft 444 kts 211°
2026-05-06 08:07 44.91938 13.77823 35997 ft 444 kts 211°
2026-05-06 08:08 44.86295 13.74251 36000 ft 444 kts 211°
2026-05-06 08:08 44.80651 13.70707 35996 ft 444 kts 211°
2026-05-06 08:09 44.75008 13.67156 35998 ft 444 kts 211°
2026-05-06 08:09 44.69356 13.63605 35995 ft 444 kts 211°
2026-05-06 08:10 44.63711 13.60064 35999 ft 445 kts 211°
2026-05-06 08:10 44.58042 13.56518 35999 ft 446 kts 211°
2026-05-06 08:11 44.52372 13.52982 36000 ft 446 kts 211°
2026-05-06 08:11 44.46700 13.49456 35998 ft 446 kts 211°
2026-05-06 08:12 44.41051 13.45920 35987 ft 444 kts 212°
2026-05-06 08:12 44.35598 13.41977 35987 ft 440 kts 216°
2026-05-06 08:13 44.30267 13.37755 35979 ft 439 kts 216°
2026-05-06 08:13 44.24969 13.33607 35984 ft 440 kts 216°
2026-05-06 08:14 44.19584 13.29525 35990 ft 441 kts 215°
2026-05-06 08:14 44.14186 13.25475 35991 ft 441 kts 215°
2026-05-06 08:15 44.08775 13.21407 35985 ft 441 kts 215°
2026-05-06 08:15 44.03382 13.17338 35987 ft 441 kts 215°
2026-05-06 08:16 43.97976 13.13275 35978 ft 442 kts 215°
2026-05-06 08:16 43.92562 13.09238 35978 ft 442 kts 214°
2026-05-06 08:17 43.87160 13.05203 35978 ft 441 kts 215°
2026-05-06 08:17 43.81750 13.01158 35981 ft 441 kts 215°
2026-05-06 08:18 43.76373 12.97152 35969 ft 442 kts 214°
2026-05-06 08:18 43.70960 12.93138 35971 ft 442 kts 214°
2026-05-06 08:19 43.65549 12.89122 35961 ft 442 kts 214°
2026-05-06 08:19 43.60129 12.85117 35960 ft 442 kts 214°
2026-05-06 08:20 43.54710 12.81124 35953 ft 442 kts 214°
2026-05-06 08:20 43.49288 12.77134 35952 ft 442 kts 214°
2026-05-06 08:21 43.43847 12.73126 35726 ft 444 kts 214°
2026-05-06 08:21 43.41134 12.71097 35472 ft 443 kts 216°
2026-05-06 08:21 43.38475 12.68968 35226 ft 441 kts 218°
2026-05-06 08:22 43.35863 12.66755 34974 ft 441 kts 219°
2026-05-06 08:22 43.33307 12.64528 34732 ft 440 kts 219°
2026-05-06 08:22 43.30689 12.62240 34474 ft 440 kts 219°
2026-05-06 08:22 43.28096 12.59995 34073 ft 442 kts 219°
2026-05-06 08:23 43.25504 12.57774 33034 ft 448 kts 218°
2026-05-06 08:23 43.22833 12.55514 31967 ft 453 kts 218°
2026-05-06 08:23 43.20157 12.53278 30922 ft 448 kts 218°
2026-05-06 08:23 43.17475 12.51047 29769 ft 454 kts 218°
2026-05-06 08:24 43.14758 12.48786 28559 ft 462 kts 218°
2026-05-06 08:24 43.12021 12.46503 27774 ft 458 kts 218°
2026-05-06 08:24 43.09301 12.44234 26984 ft 455 kts 218°
2026-05-06 08:24 43.06616 12.41995 26191 ft 451 kts 217°
2026-05-06 08:25 43.03945 12.39767 25395 ft 446 kts 217°
2026-05-06 08:25 43.01308 12.37563 24622 ft 442 kts 217°
2026-05-06 08:25 42.98695 12.35383 23862 ft 438 kts 217°
2026-05-06 08:25 42.96110 12.33227 23118 ft 434 kts 217°
2026-05-06 08:26 42.93545 12.31088 22405 ft 430 kts 217°
2026-05-06 08:26 42.91853 12.29680 21936 ft 427 kts 217°
2026-05-06 08:26 42.88483 12.26886 21045 ft 421 kts 217°
2026-05-06 08:26 42.86790 12.25486 20612 ft 419 kts 217°
2026-05-06 08:27 42.84318 12.23443 20008 ft 413 kts 216°
2026-05-06 08:27 42.81909 12.21456 19659 ft 403 kts 216°
2026-05-06 08:27 42.79560 12.19522 19532 ft 387 kts 217°
2026-05-06 08:27 42.77240 12.17771 19403 ft 377 kts 209°
2026-05-06 08:28 42.74751 12.16746 19279 ft 373 kts 195°
2026-05-06 08:28 42.72181 12.16523 19153 ft 368 kts 182°
2026-05-06 08:28 42.69670 12.17066 19007 ft 364 kts 168°
2026-05-06 08:28 42.67329 12.18384 18702 ft 366 kts 154°
2026-05-06 08:29 42.65135 12.20132 18332 ft 364 kts 153°
2026-05-06 08:29 42.62931 12.21786 17951 ft 358 kts 162°
2026-05-06 08:29 42.60573 12.22598 17578 ft 345 kts 181°
2026-05-06 08:29 42.58229 12.22399 17188 ft 332 kts 199°
2026-05-06 08:30 42.56114 12.21313 16799 ft 321 kts 213°
2026-05-06 08:30 42.54132 12.19908 16414 ft 320 kts 213°
2026-05-06 08:30 42.52161 12.18513 15879 ft 324 kts 213°
2026-05-06 08:30 42.50122 12.17060 15004 ft 338 kts 213°
2026-05-06 08:31 42.48003 12.15547 14072 ft 350 kts 212°
2026-05-06 08:31 42.45809 12.13990 13146 ft 361 kts 212°
2026-05-06 08:31 42.43558 12.12406 12414 ft 365 kts 211°
2026-05-06 08:31 42.41303 12.10826 11821 ft 364 kts 211°
2026-05-06 08:32 42.38958 12.09648 11469 ft 361 kts 191°
2026-05-06 08:32 42.36467 12.09763 11145 ft 357 kts 173°
2026-05-06 08:32 42.34066 12.10513 10819 ft 351 kts 167°
2026-05-06 08:32 42.31734 12.11244 10527 ft 335 kts 171°
2026-05-06 08:33 42.29510 12.11789 10258 ft 314 kts 173°
2026-05-06 08:33 42.27397 12.12233 9879 ft 302 kts 174°
2026-05-06 08:33 42.25340 12.12645 9482 ft 295 kts 174°
2026-05-06 08:33 42.23372 12.13048 9092 ft 285 kts 173°
2026-05-06 08:34 42.21425 12.13460 8721 ft 282 kts 173°
2026-05-06 08:34 42.17567 12.14319 7927 ft 281 kts 172°
2026-05-06 08:34 42.15647 12.14757 7471 ft 276 kts 172°
2026-05-06 08:35 42.13787 12.15184 7023 ft 266 kts 172°
2026-05-06 08:35 42.11977 12.15600 6519 ft 261 kts 172°
2026-05-06 08:35 42.10208 12.16008 6023 ft 255 kts 172°
2026-05-06 08:35 42.08477 12.16341 5530 ft 249 kts 173°
2026-05-06 08:36 42.06791 12.16818 4933 ft 248 kts 165°
2026-05-06 08:36 42.05132 12.17497 4290 ft 250 kts 163°
2026-05-06 08:36 42.03509 12.18197 3883 ft 240 kts 163°
2026-05-06 08:36 42.01952 12.18857 3557 ft 229 kts 163°
2026-05-06 08:37 42.00462 12.19484 3256 ft 221 kts 162°
2026-05-06 08:37 41.99026 12.20088 2970 ft 211 kts 162°
2026-05-06 08:37 41.97650 12.20666 2695 ft 203 kts 162°
2026-05-06 08:37 41.96354 12.21212 2448 ft 187 kts 162°
2026-05-06 08:38 41.95155 12.21717 2200 ft 173 kts 163°
2026-05-06 08:38 41.94059 12.22178 1987 ft 156 kts 163°
2026-05-06 08:38 41.93072 12.22593 1768 ft 141 kts 164°
2026-05-06 08:38 41.92162 12.22974 1589 ft 135 kts 164°
2026-05-06 08:39 41.91276 12.23346 1418 ft 132 kts 165°
2026-05-06 08:39 41.90400 12.23714 1248 ft 131 kts 165°
2026-05-06 08:39 41.89530 12.24079 1073 ft 131 kts 165°
2026-05-06 08:39 41.88663 12.24443 894 ft 130 kts 165°
2026-05-06 08:40 41.87798 12.24806 723 ft 131 kts 164°
2026-05-06 08:40 41.86930 12.25170 551 ft 131 kts 164°
2026-05-06 08:40 41.86065 12.25532 374 ft 131 kts 164°
2026-05-06 08:40 41.85195 12.25895 208 ft 131 kts 164°
2026-05-06 08:41 41.84335 12.26259 44 ft 130 kts 164°
2026-05-06 08:41 41.83534 12.26583 16 ft 104 kts 162°
2026-05-06 08:41 41.82917 12.26852 12 ft 83 kts 162°
2026-05-06 08:41 41.82445 12.27046 11 ft 56 kts 163°
2026-05-06 08:42 41.82143 12.27141 10 ft 31 kts 179°
2026-05-06 08:42 41.81967 12.27110 11 ft 20 kts 191°
2026-05-06 08:42 41.81858 12.27079 12 ft 14 kts 192°
2026-05-06 08:42 41.81770 12.27053 11 ft 12 kts 192°
2026-05-06 08:43 41.81694 12.27049 14 ft 10 kts 172°
2026-05-06 08:43 41.81627 12.27072 12 ft 12 kts 164°
2026-05-06 08:43 41.81530 12.27110 12 ft 16 kts 163°
2026-05-06 08:43 41.81422 12.27155 14 ft 19 kts 162°
2026-05-06 08:44 41.81304 12.27205 14 ft 18 kts 162°
2026-05-06 08:44 41.81182 12.27257 12 ft 20 kts 162°
2026-05-06 08:44 41.81049 12.27314 15 ft 20 kts 163°
2026-05-06 08:44 41.80925 12.27352 13 ft 17 kts 178°
2026-05-06 08:45 41.80797 12.27326 13 ft 21 kts 192°
2026-05-06 08:45 41.80684 12.27273 13 ft 17 kts 214°
2026-05-06 08:45 41.80638 12.27161 13 ft 16 kts 251°
2026-05-06 08:45 41.80592 12.26990 13 ft 22 kts 249°
2026-05-06 08:46 41.80533 12.26784 14 ft 24 kts 250°
2026-05-06 08:46 41.80484 12.26601 17 ft 19 kts 250°
2026-05-06 08:46 41.80439 12.26437 15 ft 17 kts 249°
2026-05-06 08:46 41.80358 12.26367 14 ft 17 kts 168°
2026-05-06 08:47 41.80249 12.26410 14 ft 14 kts 175°
2026-05-06 08:47 41.80159 12.26373 14 ft 15 kts 205°
2026-05-06 08:47 41.80059 12.26310 15 ft 17 kts 205°
2026-05-06 08:47 41.79946 12.26240 14 ft 18 kts 204°
2026-05-06 08:48 41.79839 12.26175 14 ft 17 kts 204°
2026-05-06 08:48 41.79770 12.26118 14 ft 9 kts 235°
2026-05-06 08:48 41.79772 12.26050 14 ft 7 kts 292°
2026-05-06 08:48 41.79790 12.25998 15 ft 7 kts 295°
2026-05-06 08:49 41.79818 12.25922 14 ft 9 kts 295°
2026-05-06 08:49 41.79827 12.25848 14 ft 7 kts 248°
2026-05-06 08:49 41.79807 12.25790 14 ft 6 kts 244°
2026-05-06 08:49 41.79778 12.25754 16 ft 6 kts 209°
2026-05-06 08:50 41.79744 12.25727 15 ft 5 kts 232°
2026-05-06 08:50 41.79754 12.25691 14 ft 4 kts 301°
2026-05-06 08:50 41.79762 12.25670 14 ft 2 kts 297°
2026-05-06 08:50 41.79764 12.25664 15 ft 0 kts 296°